English version Home page |
Updated on April 26, 2020 |
プロフィール
|
軌道要素The following improved orbital elements by Kenji Muraoka, are from 66 observations 1999 Nov. 3 to 2000 Mar. 18, perturbations by 9 Planets, Moon and 5 minor planets were taken into account. The mean residual is +/- 0.61 arc seconds. Epoch = 2000 May 16.0 TT JDT = 2451680.5 T = 2000 May 1.54310 +/- 0.07693 (m.e.) TT Peri. = 161.82444 +/- 0.02698 Node = 285.45532 +/- 0.03437 (2000.0) Incl. = 5.03075 +/- 0.00732 q = 3.2862679 +/- 0.0001965 AU e = 0.2131807 +/- 0.0000385 a = 4.1766489 +/- 0.0001436 AU n = 0.11546813 +/- 0.00000595 P = 8.536 +/- 0.0004402 years (+/- 0.16 day)
|
星図
|
光度変化m1 = 5.5 + 5 logΔ + 20 log r
|
軌道要素は村岡健治氏の計算によるものです。
|